Location: Shenandoah County Park
(38.9356°N, 78.4524°W)
Time: 15:09:41
(UTC-05:00)

Vanguard 2 Rocket - Pass Details

Date: 02 December 2023
Orbit: 555 x 3309 km, 32.9° (Epoch: 03 March)

Event Time Altitude Azimuth Distance (km) Brightness Sun altitude
Rises 13:10:55 0° 208° (SSW) 5,942 12.3 27.0°
Reaches altitude 10° 13:14:57 10° 200° (SSW) 5,274 12.6 26.8°
Maximum altitude 13:29:27 36° 141° (SE) 4,301 11.0 25.8°
Drops below altitude 10° 13:46:23 10° 85° (E) 6,187 10.9 24.5°
Sets 13:51:32 0° 78° (ENE) 7,051 11.1 24.0°
